Antigo, WI

7:45 PM CST on February 27, 2017 (GMT -0600)
Langlade County

Weather History for KAIG - February, 2014

Change the Weather History Date:

Thursday, February 13, 2014

  Actual Average Record
Temperature  
Mean Temperature 8 °F -  
Max Temperature 19 °F 25 °F 46 °F (1984)
Min Temperature -4 °F 1 °F -23 °F (1971)
Degree Days  
Heating Degree Days 58    
Moisture  
Dew Point 11 °F    
Average Humidity 92    
Maximum Humidity 96    
Minimum Humidity 84    
Precipitation  
Precipitation 0.10 in - - ()
Sea Level Pressure  
Sea Level Pressure 29.56 in    
Wind  
Wind Speed 7 mph (South)    
Max Wind Speed 17 mph    
Max Gust Speed 23 mph    
Visibility 4 miles    
Events Snow    
Averages and records for this station are not official NWS values.
T = Trace of Precipitation, MM = Missing Value Source: NWS Daily Summary

Daily Weather History Graph

Daily Weather History Graph

Search for Another Location

Airport or City:

Trip Planner

Search our weather history database for the weather conditions in past years. The results will help you decide how hot, cold, wet, or windy it might be!

Date:

Astronomy

Feb. 13, 2014 Rise Set
Actual Time 7:00 AM CST 5:21 PM CST
Civil Twilight 6:30 AM CST 5:51 PM CST
Nautical Twilight 5:55 AM CST 6:26 PM CST
Astronomical Twilight 5:21 AM CST 7:00 PM CST
Moon 4:29 PM CST (2/13) 5:54 AM CST (2/13)
Length of Visible Light 11h 21m
Length of Day
10h 20m
Waxing Gibbous, 99% of the Moon is Illuminated
Feb 13
Waxing Gibbous
Feb 14
Full
Feb 22
Last Quarter
Mar 1
New
Mar 8
First Quarter

Hourly Weather History & Observations

Time (CST) Temp. Windchill Dew Point Humidity Pressure Visibility Wind Dir Wind Speed Gust Speed Precip Events Conditions
12:15 AM -4.4 °F - -8.0 °F 84% 29.87 in 5.0 mi Calm Calm - N/A   Clear
12:35 AM 0.7 °F -10.7 °F -2.2 °F 88% 29.86 in 7.0 mi South 5.8 mph - N/A   Clear
12:55 AM 0.3 °F -9.5 °F -3.1 °F 85% 29.86 in 7.0 mi SSE 4.6 mph - N/A   Clear
1:15 AM 4.1 °F -3.2 °F 1.4 °F 89% 29.85 in 7.0 mi SSE 3.5 mph - N/A   Clear
1:35 AM 4.8 °F -4.3 °F 2.1 °F 89% 29.83 in 7.0 mi SSE 4.6 mph - N/A   Clear
1:55 AM 4.6 °F -6.0 °F 1.8 °F 88% 29.83 in 7.0 mi SSE 5.8 mph - N/A   Clear
2:15 AM 4.1 °F -3.2 °F 1.2 °F 88% 29.83 in 7.0 mi South 3.5 mph - N/A   Clear
2:35 AM 3.6 °F -3.8 °F 0.5 °F 87% 29.82 in 7.0 mi South 3.5 mph - N/A   Clear
2:55 AM 3.6 °F -3.8 °F 0.5 °F 87% 29.81 in 7.0 mi South 3.5 mph - N/A   Clear
3:15 AM 4.6 °F -4.5 °F 1.9 °F 89% 29.80 in 7.0 mi South 4.6 mph - N/A   Clear
3:35 AM 4.6 °F -6.0 °F 1.9 °F 89% 29.79 in 7.0 mi South 5.8 mph - N/A   Clear
3:55 AM 5.9 °F -5.8 °F 3.6 °F 90% 29.78 in 7.0 mi South 6.9 mph - N/A   Clear
4:15 AM 6.6 °F -7.1 °F 4.1 °F 89% 29.75 in 7.0 mi SE 9.2 mph - N/A   Scattered Clouds
4:35 AM 8.1 °F -4.3 °F 5.7 °F 90% 29.75 in 7.0 mi South 8.1 mph - N/A   Overcast
4:55 AM 8.4 °F -2.8 °F 6.1 °F 90% 29.75 in 7.0 mi South 6.9 mph - N/A   Overcast
5:15 AM 8.6 °F -5.5 °F 6.3 °F 90% 29.72 in 7.0 mi SE 10.4 mph - N/A Snow Light Snow
5:35 AM 8.1 °F -7.7 °F 5.7 °F 90% 29.71 in 5.0 mi SSE 12.7 mph - N/A   Overcast
5:55 AM 8.6 °F -7.0 °F 6.4 °F 91% 29.71 in 2.5 mi SSE 12.7 mph - N/A   Overcast
6:15 AM 9.1 °F -4.9 °F 6.8 °F 90% 29.70 in 2.5 mi SSE 10.4 mph - N/A   Overcast
6:35 AM 9.5 °F -4.4 °F 7.3 °F 91% 29.68 in 2.5 mi SSE 10.4 mph - N/A Snow Light Snow
6:55 AM 9.5 °F -5.2 °F 7.3 °F 91% 29.67 in 2.0 mi SSE 11.5 mph - N/A   Overcast
7:15 AM 10.0 °F -5.2 °F 7.7 °F 90% 29.67 in 1.0 mi SSE 12.7 mph - N/A Snow Light Snow
7:35 AM 10.6 °F -3.8 °F 8.4 °F 91% 29.65 in 1.0 mi SSE 11.5 mph - N/A   Overcast
7:55 AM 10.8 °F -4.3 °F 8.6 °F 91% 29.63 in 1.0 mi SE 12.7 mph - N/A Snow Light Snow
8:15 AM 11.1 °F -5.1 °F 8.8 °F 90% 29.62 in 1.0 mi SSE 15.0 mph 19.6 mph N/A Snow Light Snow
8:35 AM 11.3 °F -4.9 °F 9.3 °F 92% 29.62 in 0.5 mi SSE 15.0 mph - N/A Snow Snow
8:55 AM 11.3 °F -4.9 °F 9.3 °F 92% 29.60 in 1.0 mi SSE 15.0 mph - N/A Snow Light Snow
9:15 AM 11.7 °F -5.5 °F 9.5 °F 91% 29.59 in 1.2 mi SSE 17.3 mph - N/A Snow Light Snow
9:35 AM 12.2 °F -1.8 °F 10.4 °F 92% 29.56 in 1.2 mi SE 11.5 mph - N/A Snow Light Snow
9:55 AM 12.7 °F -2.5 °F 10.9 °F 92% 29.56 in 0.8 mi SSE 13.8 mph 20.7 mph N/A Snow Light Snow
10:15 AM 13.6 °F -1.9 °F 11.8 °F 93% 29.56 in 0.5 mi South 15.0 mph 21.9 mph N/A Snow Light Snow
10:35 AM 14.5 °F -0.2 °F 12.9 °F 93% 29.54 in 2.0 mi SSE 13.8 mph - N/A Snow Light Snow
10:55 AM 14.7 °F 0.1 °F 13.1 °F 93% 29.53 in 5.0 mi SSE 13.8 mph - N/A   Overcast
11:15 AM 14.9 °F 0.3 °F 13.5 °F 94% 29.51 in 2.5 mi SSE 13.8 mph - N/A   Overcast
11:35 AM 15.6 °F 2.5 °F 14.0 °F 93% 29.49 in 2.5 mi SSE 11.5 mph - N/A   Overcast
11:55 AM 16.0 °F 1.7 °F 14.4 °F 93% 29.47 in 2.0 mi SSE 13.8 mph - N/A   Overcast
12:15 PM 16.3 °F 3.4 °F 14.9 °F 94% 29.46 in 2.0 mi SSE 11.5 mph - N/A   Overcast
12:35 PM 16.7 °F 3.2 °F 15.3 °F 94% 29.44 in 2.0 mi SSE 12.7 mph - N/A   Overcast
12:55 PM 17.1 °F 4.3 °F 15.6 °F 94% 29.43 in 2.5 mi SSE 11.5 mph - N/A   Overcast
1:35 PM 17.1 °F 5.0 °F 15.6 °F 94% 29.41 in 3.0 mi SSE 10.4 mph - N/A   Overcast
1:55 PM 17.2 °F 6.0 °F 15.8 °F 94% 29.40 in 2.0 mi SSE 9.2 mph - 0.01 in   Overcast
2:15 PM 17.2 °F 6.0 °F 15.8 °F 94% 29.40 in 1.5 mi SSE 9.2 mph - N/A   Overcast
2:35 PM 17.6 °F 7.3 °F 16.2 °F 94% 29.40 in 1.5 mi SSE 8.1 mph - N/A   Overcast
2:55 PM 17.6 °F 6.4 °F 16.2 °F 94% 29.40 in 2.0 mi SSE 9.2 mph - N/A   Overcast
3:15 PM 17.6 °F 7.3 °F 16.2 °F 94% 29.40 in 1.8 mi SSE 8.1 mph - N/A   Overcast
3:35 PM 18.0 °F 8.7 °F 16.7 °F 95% 29.40 in 1.5 mi SSE 6.9 mph - N/A   Overcast
3:55 PM 18.3 °F 10.2 °F 17.1 °F 95% 29.40 in 1.5 mi South 5.8 mph - N/A   Overcast
4:15 PM 18.1 °F 8.9 °F 16.9 °F 95% 29.40 in 1.5 mi SSE 6.9 mph - N/A   Overcast
4:35 PM 18.5 °F 9.3 °F 17.2 °F 95% 29.41 in 1.5 mi South 6.9 mph - 0.01 in   Overcast
4:55 PM 18.3 °F 11.5 °F 17.1 °F 95% 29.41 in 1.5 mi SSE 4.6 mph - 0.01 in Snow Light Snow
5:15 PM 18.1 °F 12.9 °F 16.7 °F 94% 29.41 in 1.0 mi South 3.5 mph - N/A Snow Light Snow
5:35 PM 18.0 °F - 16.7 °F 95% 29.41 in 2.0 mi Calm Calm - 0.01 in Snow Light Snow
5:55 PM 17.8 °F - 16.5 °F 95% 29.41 in 4.0 mi Calm Calm - 0.02 in Snow Light Snow
6:15 PM 18.0 °F 12.7 °F 16.7 °F 95% 29.42 in 2.5 mi SW 3.5 mph - 0.01 in Snow Light Snow
6:35 PM 17.6 °F - 16.3 °F 95% 29.42 in 2.5 mi Calm Calm - 0.01 in Snow Light Snow
6:55 PM 17.6 °F - 16.3 °F 95% 29.42 in 2.5 mi Calm Calm - 0.02 in Snow Light Snow
7:15 PM 17.6 °F - 16.3 °F 95% 29.42 in 2.0 mi Calm Calm - N/A Snow Light Snow
7:35 PM 17.6 °F 12.3 °F 16.3 °F 95% 29.42 in 3.0 mi West 3.5 mph - 0.01 in Snow Light Snow
7:55 PM 17.6 °F 10.7 °F 16.3 °F 95% 29.42 in 3.0 mi West 4.6 mph - 0.01 in Snow Light Snow
8:15 PM 18.5 °F 7.5 °F 17.4 °F 96% 29.42 in 4.0 mi WNW 9.2 mph - 0.01 in Snow Light Snow
8:35 PM 19.0 °F 8.2 °F 18.0 °F 96% 29.42 in 7.0 mi NW 9.2 mph - 0.01 in Snow Light Snow
8:55 PM 18.9 °F 6.5 °F 17.6 °F 95% 29.44 in 7.0 mi NW 11.5 mph - 0.02 in Snow Light Snow
9:15 PM 18.1 °F 5.0 °F 16.9 °F 95% 29.45 in 10.0 mi NW 12.7 mph 20.7 mph N/A   Overcast
9:35 PM 17.4 °F 3.5 °F 15.8 °F 93% 29.45 in 10.0 mi NW 13.8 mph - 0.01 in Snow Light Snow
9:55 PM 16.2 °F 3.9 °F 14.0 °F 91% 29.46 in 10.0 mi NW 10.4 mph 13.8 mph 0.01 in   Mostly Cloudy
10:15 PM 16.9 °F 5.5 °F 15.4 °F 94% 29.46 in 7.0 mi NW 9.2 mph - N/A Snow Light Snow
10:35 PM 15.8 °F 0.3 °F 13.8 °F 92% 29.47 in 10.0 mi NW 16.1 mph 23.0 mph N/A   Overcast
10:55 PM 14.9 °F 3.1 °F 12.0 °F 88% 29.47 in 10.0 mi NW 9.2 mph - N/A   Mostly Cloudy
11:15 PM 14.2 °F 2.2 °F 11.1 °F 88% 29.47 in 10.0 mi NW 9.2 mph - N/A   Mostly Cloudy
11:35 PM 13.6 °F 0.0 °F 10.4 °F 87% 29.48 in 10.0 mi NW 11.5 mph - N/A   Mostly Cloudy
11:55 PM 12.9 °F 0.7 °F 9.7 °F 87% 29.48 in 10.0 mi NW 9.2 mph - N/A   Clear